Location: Peterborough
(44.3091°N, 78.3197°W)
Time: 04:54:57
(UTC-04:00)

S-56A Canister/Altair - Pass Details

Date: 25 March 2023
Orbit: 639 x 2492 km, 38.9° (Epoch: 08 June)

Event Time Altitude Azimuth Distance (km) Brightness Sun altitude
Rises 02:37:21 0° 285° (WNW) 6,128 12.0 -40.8°
Reaches altitude 10° 02:41:55 10° 277° (W) 5,156 11.5 -40.4°
Enters shadow 02:42:11 11° 276° (W) 5,103 11.5 -40.4°
Maximum altitude 02:54:13 33° 222° (SW) 3,444 - -39.3°
Drops below altitude 10° 03:04:53 10° 165° (SSE) 4,425 - -38.3°
Sets 03:08:29 0° 156° (SSE) 5,176 - -37.9°
